Station MGPT2 - 8770613 - Morgans Point, TX Image indicating link to RSS feed of recent meteorological observations for station MGPT2


Conditions at MGPT2 as of
(5:00 am CDT)
1000 GMT on 04/16/2024:
     

Click on the graph icon in the table below to see a time series plot of the last five days of that observation.

5-day plot - Wind Direction Wind Direction (WDIR): SE ( 130 deg true )
5-day plot - Wind Speed Wind Speed (WSPD): 11.1 kts
5-day plot - Wind Gust Wind Gust (GST): 15.9 kts
5-day plot - Atmospheric Pressure Atmospheric Pressure (PRES):29.83 in
5-day plot - Pressure Tendency Pressure Tendency (PTDY):+0.05 in ( Rising )
5-day plot - Air Temperature Air Temperature (ATMP): 72.1 °F
5-day plot - Water Temperature Water Temperature (WTMP): 73.9 °F
5-day plot - Wind Speed at 10 Meters Wind Speed at 10 meters (WSPD10M): 11.7 kts
5-day plot - Wind Speed at 20 Meters Wind Speed at 20 meters (WSPD20M): 13.6 kts
5-day plot -  Wind Speed, Wind Gust and Atmospheric Pressure Combined plot of Wind Speed, Gust, and Air Pressure
Previous observations
TIME
(CDT)
5-day plot - Wind Direction
WDIR
 
5-day plot - Wind Speed
WSPD
kts
5-day plot - Wind Gust
GST
kts
5-day plot - Wave Height
WVHT
ft
5-day plot - Dominant Wave Period
DPD
sec
5-day plot - Average Wave Period
APD
sec
5-day plot - Mean Wave Direction
MWD
 
5-day plot - Atmospheric Pressure
PRES
in
5-day plot - Pressure Tendency
PTDY
in
5-day plot - Air Temperature
ATMP
°F
5-day plot - Water Temperature
WTMP
°F
5-day plot - Dew Point
DEWP
°F
5-day plot - Salinity
SAL
psu
5-day plot - Visibility
VIS
nmi
5-day plot - Tide (above MLLW)
TIDE
ft
2024-04-16 04:54 am SE 12.0 15.9----29.83- 72.0 73.9----
2024-04-16 04:48 amESE 12.0 15.9----29.83- 72.1 73.9----
2024-04-16 04:42 am SE 12.0 17.1----29.83- 72.1 73.9----
2024-04-16 04:36 am SE 13.0 17.1----29.83- 72.1 73.9----
2024-04-16 04:30 am SE 14.0 18.1----29.83- 72.0 73.9----
2024-04-16 04:24 am SE 12.0 20.0----29.83- 72.1 73.9----
2024-04-16 04:18 am-------29.83-- 73.9----
2024-04-16 04:12 amESE 14.0 19.0----29.82- 72.0 73.9----
2024-04-16 04:06 am SE 13.0 20.0----29.83- 72.1 73.9----
2024-04-16 04:00 am SE 13.0 17.1----29.83-0.04 72.1 73.9----
2024-04-16 03:54 am SE 11.1 17.1----29.83- 72.1 73.9----
2024-04-16 03:48 amESE 12.0 20.0----29.82-- 73.9----
2024-04-16 03:42 amESE 12.0 19.0----29.82- 72.1 73.9----
2024-04-16 03:36 amESE 12.0 15.9----29.82- 72.1 73.9----
2024-04-16 03:30 am SE 13.0 17.1----29.82- 72.0 73.9----
2024-04-16 03:24 am SE 12.0 19.0----29.83- 72.1 73.9----
2024-04-16 03:18 am SE 11.1 17.1----29.83- 72.0 73.9----
2024-04-16 03:12 am SE 9.9 14.0----29.83- 71.8 73.9----
2024-04-16 03:06 am SE 7.0 15.9----29.83- 71.8 73.9----
2024-04-16 03:00 amESE 9.9 15.9----29.83-0.10 71.6 73.9----
2024-04-16 02:54 amESE 15.0 20.0----29.82- 71.6 73.9----
2024-04-16 02:48 am SE 11.1 18.1----29.83-- 73.9----
2024-04-16 02:42 am SE 13.0 25.1----29.82- 71.6 73.9----
2024-04-16 02:36 am SE 15.0 20.0----29.81- 71.6 74.1----
2024-04-16 02:30 amESE 18.1 24.1----29.81- 71.4 74.1----
2024-04-16 02:24 amESE 18.1 29.9----29.79- 71.4 74.1----
2024-04-16 02:18 amESE 25.1 29.9----29.78-- 74.1----
2024-04-16 02:12 amESE 25.1 31.1----29.79- 71.4 74.1----
2024-04-16 02:06 amESE 26.0 29.9----29.79- 71.6 74.1----
2024-04-16 02:00 amESE 25.1 29.9----29.78-0.17 71.4 73.9----
2024-04-16 01:54 amESE 24.1 28.9----29.78- 71.4 73.9----
2024-04-16 01:48 amESE 24.1 31.1----29.79- 71.4 73.9----
2024-04-16 01:42 amESE 24.1 28.9----29.79- 71.6 73.9----
2024-04-16 01:36 amESE 21.0 25.1----29.81- 71.6 73.9----
2024-04-16 01:30 amESE 20.0 24.1----29.83- 71.6 73.9----
2024-04-16 01:24 amESE 18.1 22.9----29.84- 71.6 73.9----
2024-04-16 01:18 amESE 18.1 22.0----29.85-- 73.9----
2024-04-16 01:12 amESE 17.1 20.0----29.85- 71.6 73.9----
2024-04-16 01:06 amESE 13.0 15.9----29.87- 71.6 73.9----
2024-04-16 01:00 amESE 11.1 14.0----29.87+0.00 71.4 73.9----
2024-04-16 12:54 am E 8.0 9.9----29.88- 71.4 73.9----
2024-04-16 12:48 am E 7.0 9.9----29.89- 71.4 73.9----
2024-04-16 12:42 am E 6.0 7.0----29.90- 71.2 73.9----
2024-04-16 12:36 am E 6.0 8.0----29.91- 71.4 73.9----
2024-04-16 12:30 am E 6.0 8.0----29.92- 71.4 73.9----
2024-04-16 12:24 amESE 7.0 7.0----29.92- 71.2 73.9----
2024-04-16 12:18 am E 6.0 8.0----29.93-- 73.9----
2024-04-16 12:12 amESE 7.0 8.9----29.93- 71.6 73.9----
2024-04-16 12:06 amESE 6.0 8.9----29.93- 71.6 73.9----
2024-04-16 12:00 amESE 8.9 11.1----29.93+0.06 71.6 73.8----
2024-04-15 11:54 pmESE 8.9 9.9----29.94- 71.6 73.8----
2024-04-15 11:48 pmESE 5.1 6.0----29.94- 71.4 73.8----
2024-04-15 11:42 pm E 2.9 4.1----29.94- 71.4 73.8----
2024-04-15 11:36 pm E 2.9 5.1----29.94- 71.6 73.6----
2024-04-15 11:30 pm E 1.9 4.1----29.95- 71.6 73.6----
2024-04-15 11:24 pmESE 2.9 4.1----29.95- 71.6 73.6----
2024-04-15 11:18 pm E 2.9 5.1----29.95-- 73.6----
2024-04-15 11:12 pmESE 4.1 5.1----29.94- 72.0 73.6----
2024-04-15 11:06 pm E 1.0 1.9----29.95- 72.1 73.6----
2024-04-15 11:00 pm SE 2.9 4.1----29.95+0.10 72.1 73.6----
2024-04-15 10:54 pmSSE 1.9 2.9----29.94- 72.1 73.6----
2024-04-15 10:48 pmSSE 1.9 5.1----29.94- 72.1 73.6----
2024-04-15 10:42 pm SE 6.0 11.1----29.93- 72.0 73.6----
2024-04-15 10:36 pm SE 6.0 8.9----29.92- 72.0 73.6----
2024-04-15 10:30 pm SE 7.0 14.0----29.91- 71.8 73.6----
2024-04-15 10:24 pmESE 15.0 19.0----29.89- 71.8 73.4----
2024-04-15 10:18 pmESE 15.0 19.0----29.88- 71.8 73.4----
2024-04-15 10:12 pmESE 15.9 19.0----29.88- 71.8 73.4----
2024-04-15 10:06 pmESE 15.9 20.0----29.87- 71.8 73.4----
2024-04-15 10:00 pmESE 17.1 20.0----29.87+0.01 71.8 73.4----
2024-04-15 09:54 pmESE 17.1 22.0----29.86- 71.8 73.4----
2024-04-15 09:48 pmESE 15.0 19.0----29.86- 71.8 73.4----
2024-04-15 09:42 pmESE 14.0 19.0----29.86- 71.8 73.4----
2024-04-15 09:36 pmESE 12.0 15.9----29.88- 71.8 73.4----
2024-04-15 09:30 pmESE 15.0 17.1----29.87-- 73.4----
2024-04-15 09:24 pmESE 14.0 18.1----29.88-- 73.4----
2024-04-15 09:18 pmESE 15.0 17.1----29.88- 71.8 73.4----
2024-04-15 09:12 pmESE 14.0 18.1----29.88- 71.8 73.2----
2024-04-15 09:06 pmESE 14.0 18.1----29.88- 72.0 73.2----
2024-04-15 09:00 pmESE 15.9 19.0----29.88+0.00 71.8 73.2----
2024-04-15 08:54 pmESE 17.1 20.0----29.87- 71.8 73.2----
2024-04-15 08:48 pmESE 15.0 19.0----29.87- 71.8 73.2----
2024-04-15 08:42 pmESE 19.0 22.0----29.86- 71.8 73.2----
2024-04-15 08:36 pmESE 17.1 19.0----29.86- 71.8 73.2----
2024-04-15 08:30 pmESE 15.0 19.0----29.87- 71.8 73.2----
2024-04-15 08:24 pmESE 14.0 21.0----29.87- 71.8 73.2----
2024-04-15 08:18 pmESE 17.1 19.0----29.87- 71.8 73.2----
2024-04-15 08:12 pmESE 13.0 21.0----29.87- 71.8 73.2----
2024-04-15 08:06 pmESE 18.1 21.0----29.86- 71.6 73.2----
2024-04-15 08:00 pmESE 15.9 22.0----29.85-0.04- 73.2----
2024-04-15 07:54 pmESE 18.1 22.0----29.85-- 73.2----
2024-04-15 07:48 pmESE 20.0 22.9----29.86- 71.8 73.2----
2024-04-15 07:42 pmESE 15.9 22.0----29.86- 72.0 73.2----
2024-04-15 07:36 pmESE 21.0 24.1----29.85- 71.8 73.2----
2024-04-15 07:30 pmESE 20.0 25.1----29.85- 71.8 73.2----
2024-04-15 07:24 pmESE 19.0 24.1----29.85- 71.8 73.2----
2024-04-15 07:18 pmESE 17.1 24.1----29.84-- 73.2----
2024-04-15 07:12 pmESE 20.0 25.1----29.84-- 73.2----
2024-04-15 07:06 pm E 14.0 21.0----29.85-- 73.2----
2024-04-15 07:00 pmESE 19.0 22.9----29.86-0.03 72.0 73.2----
2024-04-15 06:54 pmESE 19.0 21.0----29.87- 72.0 73.2----
2024-04-15 06:48 pmESE 13.0 20.0----29.88- 72.3 73.2----
2024-04-15 06:42 pmESE 17.1 20.0----29.89- 72.3 73.4----
2024-04-15 06:36 pmESE 13.0 19.0----29.89- 72.3 73.6----
2024-04-15 06:30 pmESE 17.1 21.0----29.89- 72.3 73.6----
2024-04-15 06:24 pmESE 18.1 21.0----29.88- 72.3 73.6----
2024-04-15 06:18 pmESE 20.0 22.0----29.88- 72.3 73.6----
2024-04-15 06:00 pmESE 20.0 24.1----29.88-0.04 72.5 73.6----
2024-04-15 05:54 pmESE 18.1 22.0----29.88- 72.5 73.6----
2024-04-15 05:48 pmESE 17.1 22.0----29.87- 72.7 73.6----
2024-04-15 05:42 pmESE 19.0 22.0----29.88- 72.9 73.6----
2024-04-15 05:36 pmESE 19.0 22.9----29.88- 72.7 73.6----
2024-04-15 05:30 pmESE 17.1 22.0----29.88-- 73.6----
2024-04-15 05:24 pmESE 19.0 22.9----29.89-- 73.6----
2024-04-15 05:18 pmESE 21.0 22.9----29.89- 72.9 73.6----
2024-04-15 05:12 pmESE 19.0 24.1----29.89- 73.2 73.4----
2024-04-15 05:06 pmESE 21.0 22.9----29.89- 73.2 73.4----
2024-04-15 05:00 pmESE 18.1 22.9----29.89-0.04 73.6 73.4----
2024-04-15 04:54 pmESE 21.0 22.9----29.88- 73.4 73.4----
2024-04-15 04:48 pmESE 15.9 22.9----29.88- 73.9 73.4----
2024-04-15 04:42 pmESE 21.0 22.9----29.89- 73.6 73.4----
2024-04-15 04:36 pmESE 18.1 24.1----29.88- 73.8 73.4----
2024-04-15 04:30 pmESE 20.0 25.1----29.88- 73.8 73.4----
2024-04-15 04:24 pmESE 19.0 22.9----29.89- 73.9 73.2----
2024-04-15 04:18 pmESE 18.1 22.9------ 73.9 73.2----
2024-04-15 04:12 pm E 13.0 24.1------ 74.1 73.2----
2024-04-15 04:06 pmESE 21.0 25.1------ 73.9 73.2----
2024-04-15 04:00 pmESE 18.1 24.1----29.89-0.05 74.3 73.2----
2024-04-15 03:54 pmESE 19.0 22.9----29.90- 74.5 73.2----
2024-04-15 03:48 pmESE 17.1 24.1----29.90- 75.2 73.2----
2024-04-15 03:42 pmESE 20.0 25.1----29.90- 75.6 73.2----
2024-04-15 03:36 pmESE 21.0 26.0----29.90- 75.2 73.2----
2024-04-15 03:30 pmESE 19.0 25.1----29.91- 75.2 73.2----
2024-04-15 03:24 pmESE 22.9 25.1----29.91- 75.0 73.2----
2024-04-15 03:18 pmESE 20.0 22.9----29.91- 75.4 73.2----
2024-04-15 03:12 pmESE 18.1 22.9----29.91- 75.7 73.2----
2024-04-15 03:06 pmESE 15.9 20.0----29.92- 75.7 73.0----
2024-04-15 03:00 pmESE 14.0 21.0----29.92-0.03 75.9 73.0----
2024-04-15 02:54 pmESE 15.0 19.0----29.92- 76.1 73.0----
2024-04-15 02:48 pmESE 15.9 20.0----29.92- 75.7 73.0----
2024-04-15 02:42 pmESE 14.0 20.0----29.92- 76.1 73.0----
2024-04-15 02:36 pmESE 13.0 20.0----29.92- 75.9 73.0----
2024-04-15 02:30 pmESE 15.0 18.1----29.92- 76.1 73.0----
2024-04-15 02:24 pm SE 15.9 19.0----29.93- 75.7 73.0----
2024-04-15 02:18 pmESE 14.0 19.0----29.93- 76.1 73.0----
2024-04-15 02:12 pmESE 15.0 18.1----29.93- 75.9 73.0----
2024-04-15 02:06 pmESE 15.9 20.0----29.93- 76.1 73.0----
2024-04-15 02:00 pmESE 15.9 21.0----29.93-0.02 75.7 73.0----
2024-04-15 01:54 pmESE 14.0 20.0----29.93- 75.9 73.0----
2024-04-15 01:48 pmESE 17.1 19.0----29.94- 75.7 73.0----
2024-04-15 01:42 pmESE 12.0 17.1----29.94- 75.7 73.0----
2024-04-15 01:36 pm SE 12.0 19.0----29.94- 75.9 73.0----
2024-04-15 01:30 pmESE 14.0 19.0----29.94- 75.9 73.0----
2024-04-15 01:24 pmESE 15.0 20.0----29.94- 76.1 73.0----
2024-04-15 01:18 pmESE 15.0 20.0----29.94- 76.1 73.0----
2024-04-15 01:12 pm SE 15.0 20.0----29.94- 75.9 73.0----
2024-04-15 01:06 pmESE 14.0 18.1----29.94- 75.4 73.0----
2024-04-15 01:00 pmESE 14.0 21.0----29.94+0.00 75.2 73.0----
2024-04-15 12:54 pmESE 15.9 18.1----29.94- 74.7 73.0----
2024-04-15 12:48 pmESE 15.0 18.1----29.94- 75.2 73.0----
2024-04-15 12:42 pmESE 15.0 19.0----29.95- 75.2 73.0----
2024-04-15 12:36 pmESE 13.0 18.1----29.95- 75.6 73.0----
2024-04-15 12:30 pmESE 14.0 17.1----29.95- 75.6 73.0----
2024-04-15 12:24 pmESE 13.0 19.0----29.94- 75.4 73.0----
2024-04-15 12:18 pmESE 13.0 18.1----29.95- 75.7 73.2----
2024-04-15 12:12 pmESE 15.0 20.0----29.95- 75.6 73.2----
2024-04-15 12:06 pmESE 15.0 19.0----29.94- 75.7 73.2----
2024-04-15 12:00 pmESE 14.0 20.0----29.95+0.00 75.7 73.2----
2024-04-15 11:54 amESE 15.0 20.0----29.94- 75.9 73.2----
2024-04-15 11:48 amESE 15.9 20.0----29.94- 76.1 73.2----
2024-04-15 11:42 amESE 14.0 18.1----29.94- 75.7 73.2----
2024-04-15 11:36 amESE 14.0 19.0----29.95- 75.7 73.2----
2024-04-15 11:30 amESE 14.0 18.1----29.95- 76.3 73.0----
2024-04-15 11:24 amESE 14.0 19.0----29.95- 75.9 73.0----
2024-04-15 11:18 amESE 14.0 19.0----29.95- 75.7 73.0----
2024-04-15 11:12 amESE 14.0 18.1----29.95- 75.9 73.0----
2024-04-15 11:06 amESE 14.0 18.1----29.95- 75.9 73.0----
2024-04-15 11:00 amESE 14.0 17.1----29.95+0.01 76.1 73.0----
2024-04-15 10:54 amESE 13.0 18.1----29.95- 75.6 73.0----
2024-04-15 10:48 amESE 13.0 17.1----29.95- 75.2 73.0----
2024-04-15 10:42 amESE 11.1 18.1----29.95- 74.3 73.0----
2024-04-15 10:36 am SE 13.0 18.1----29.94- 73.8 73.0----
2024-04-15 10:30 am SE 14.0 18.1----29.94- 73.9 73.0----
2024-04-15 10:24 am SE 13.0 19.0----29.94- 74.3 73.0----
2024-04-15 10:18 amESE 13.0 17.1----29.94- 74.8 73.0----
2024-04-15 10:12 am SE 12.0 15.9----29.94- 74.8 73.0----
2024-04-15 10:06 amESE 15.0 18.1----29.94- 74.8 73.0----
2024-04-15 10:00 amESE 11.1 15.9----29.94+0.01 74.8 73.0----
2024-04-15 09:54 am SE 14.0 17.1----29.94- 73.8 73.0----
2024-04-15 09:48 amESE 13.0 17.1----29.94- 73.6 73.0----
2024-04-15 09:42 amESE 12.0 15.9----29.94- 73.4 73.0----
2024-04-15 09:36 am SE 13.0 15.9----29.95- 73.8 73.0----
2024-04-15 09:30 amESE 11.1 14.0----29.95-- 73.0----
2024-04-15 09:24 amESE 9.9 13.0----29.95-- 73.0----
2024-04-15 09:18 amESE 9.9 13.0----29.95- 74.3 73.0----
2024-04-15 09:12 am SE 8.9 13.0----29.95- 74.1 73.0----
2024-04-15 09:06 amESE 8.9 13.0----29.94- 73.8 73.0----
2024-04-15 09:00 am SE 8.9 13.0----29.94+0.02 73.6 72.9----
2024-04-15 08:54 am SE 6.0 11.1----29.95- 73.6 72.9----
2024-04-15 08:48 am SE 7.0 9.9----29.95-- 72.9----
2024-04-15 08:42 am SE 6.0 9.9----29.95- 73.0 72.9----
2024-04-15 08:36 am SE 6.0 11.1----29.95- 73.2 72.9----
2024-04-15 08:30 am SE 6.0 11.1----29.95- 73.2 72.9----
2024-04-15 08:24 am SE 5.1 9.9----29.95- 73.4 72.9----
2024-04-15 08:18 am SE 7.0 9.9----29.95- 73.4 72.9----
2024-04-15 08:12 am SE 5.1 9.9----29.95- 73.2 72.9----
2024-04-15 08:06 am SE 5.1 8.9----29.95- 72.3 72.9----
2024-04-15 08:00 amSSE 7.0 9.9----29.94+0.03 71.8 72.9----
2024-04-15 07:54 am SE 7.0 9.9----29.94- 71.8 72.9----
2024-04-15 07:48 am SE 6.0 9.9----29.94- 71.6 72.9----
2024-04-15 07:42 am SE 6.0 8.9----29.94- 71.8 72.9----
2024-04-15 07:36 am SE 6.0 8.9----29.94- 71.8 72.9----
2024-04-15 07:30 amSSE 5.1 8.0----29.94- 71.8 72.9----
2024-04-15 07:24 amSSE 5.1 8.9----29.94- 71.6 72.9----
2024-04-15 07:18 amSSE 5.1 9.9----29.93- 71.6 72.9----
2024-04-15 07:12 amSSE 5.1 8.0----29.93- 71.6 72.9----
2024-04-15 07:06 amSSE 5.1 8.9----29.93- 71.4 72.9----
2024-04-15 07:00 am SE 5.1 9.9----29.93+0.02 71.4 72.9----
2024-04-15 06:54 am SE 5.1 8.9----29.93- 71.4 72.9----
2024-04-15 06:48 amSSE 6.0 9.9----29.93-- 72.9----
2024-04-15 06:42 amSSE 5.1 12.0----29.93- 71.4 73.0----
2024-04-15 06:36 amSSE 5.1 12.0----29.93- 71.4 73.0----
2024-04-15 06:30 amSSE 5.1 9.9----29.93- 71.4 73.0----
2024-04-15 06:24 amSSE 6.0 9.9----29.92- 71.4 73.0----
2024-04-15 06:18 am SE 8.0 11.1----29.92- 71.4 73.0----
2024-04-15 06:12 am SE 7.0 9.9----29.92- 71.4 73.0----
2024-04-15 06:06 am SE 6.0 9.9----29.92- 71.4 73.0----
2024-04-15 06:00 amSSE 5.1 9.9----29.92+0.00 71.4 73.0----
2024-04-15 05:54 amSSE 7.0 9.9----29.92- 71.4 73.0----
2024-04-15 05:48 am SE 5.1 11.1----29.92- 71.2 73.0----
2024-04-15 05:42 am SE 5.1 9.9----29.92- 71.2 73.0----
2024-04-15 05:36 am SE 5.1 11.1----29.92- 71.2 73.0----
2024-04-15 05:30 am SE 6.0 8.9----29.91- 71.1 73.0----
2024-04-15 05:24 am SE 6.0 9.9----29.91- 71.1 73.0----
2024-04-15 05:18 am SE 7.0 9.9----29.91- 71.1 73.0----
2024-04-15 05:12 am SE 5.1 9.9----29.91- 70.9 73.0----
2024-04-15 05:06 am SE 6.0 8.9----29.91- 70.9 73.0----
2024-04-15 05:00 am SE 6.0 8.0----29.91-0.02 70.9 73.0----
2024-04-15 04:54 am SE 5.1 8.9----29.91- 70.9 73.0----